星链-6274 (STARLINK-6274 )

导读 | 豆包AI

STARLINK-6274是美国太空探索技术公司(SpaceX)星链(Starlink)星座中的一颗卫星,于北京时间2023年5月31日8时发射入轨。星链星座旨在构建全球卫星互联网,为全球提供高速宽带服务,该卫星加入后进一步扩充了星链网络的覆盖范围与服务能力。

Basic Information
目录编号:
56776
目录名称:
STARLINK-6274
国际标识:
2023-078K
轨道中心:
EARTH
卫星名称:
星链-6274
卫星全名:
星链-6274 (STARLINK-6274 )
卫星状态:
在轨 (已飞行1019 天)
发射日期:
2023-05-31 UTC
国别 :
美国 (US)
星等 :
--
Orbit Information
数据来源 国际轨道数据 AOE轨道数据
星历时间 2026-03-15T17:29:04+0800
12小时前
查看轨道信息
2026-03-15T23:00:00+0800
6小时前
查看轨道信息
半长轴 6950.206km 6950.2km
偏心率 0.0002812 0.0003056
轨道倾角 69.999° 70.000°
近地点辐角 266.918° 270.334°
升交点赤经 310.252° 309.674°
平近点角 93.165° 249.046°
近地点 570.114km 569.939km
远地点 574.024km 574.187km
周期 96.107分钟 96.107分钟
每日圈数 14.983258 14.98328
Detailed Information
固有亮度:
5
最大亮度:
2.5
卫星平台:
Starlink v1.5
覆盖范围:
全球
运营商:
太空探索技术公司
运营商所在国:
美国
制造商(研发单位):
太空探索技术公司
制造商所在国:
美国
使用方式:
暂无
Satellite Introduction
星链(Starlink)计划是由太空探索技术公司(SpaceX)提出的一个巨型低轨卫星互联网星座项目,计划在2019年至2024年间在太空搭建由约1.2万颗卫星组成的“星链”网络,其中1584颗将部署在地球上空550千米处的近地轨道,并从2020年开始工作。该卫星仍在工作。
2D Orbit Map
3D Orbit Map
Orbit Altitude Analysis Chart
Orbit Inclination Analysis Chart
Orbit Comprehensive Analysis Chart
View Comprehensive Chart